[[{"header":{"parameterUnit":"m.s-1","parameterCategory":1,"la1":30.2991,"la2":30.254,"lo1":-89.0895,"lo2":-89.0444,"dy":0.0017,"dx":0.0017,"nx":28,"ny":28,"refTime":"2024-02-26T03:00:00:Z","depth":0,"parameterNumber":2,"parameterNumberName":"U-component_of_WINDS"},"data":[0,0,0,0,0,0,0,0,0,0,0,0,0,0,0,0,0,0,0,0,0,0,0,0,0,0,0,0,0,0,0,0,0,0,0,0,0,0,0,0,0,0,0,0,0,0,0,0,0,0,0,0,0,0,0,0,0,0,-2.3533,-2.3533,0,-2.3568,-2.3568,-2.3569,-2.3569,-2.3569,-2.3568,-2.3568,-2.3604,-2.3606,-2.3607,0,0,0,0,0,0,0,0,0,0,0,0,0,-2.3464,-2.3465,-2.3532,-2.3533,-2.3533,-2.3568,-2.3568,-2.3569,-2.3569,-2.3569,-2.3568,-2.3567,-2.3604,-2.3605,-2.3607,0,0,0,0,0,0,0,0,0,0,0,0,0,-2.3496,-2.3466,-2.3532,-2.3538,-2.3538,-2.3568,-2.3569,-2.3569,-2.3569,-2.3569,-2.3568,-2.3567,-2.3603,-2.3605,-2.3607,-2.3634,0,0,-2.3614,-2.3615,0,0,0,0,0,0,0,0,-2.3494,-2.3499,-2.3536,-2.3537,-2.3538,-2.3563,-2.3558,-2.3591,-2.3569,-2.3558,-2.3568,-2.3567,-2.3591,-2.3594,-2.3602,-2.3636,-2.3637,-2.3614,-2.3615,-2.3616,-2.3617,0,0,0,0,0,0,0,-2.3492,-2.3497,-2.3547,-2.3537,-2.3538,-2.3538,-2.3542,-2.3564,-2.3578,-2.3559,-2.3559,-2.3563,-2.3592,-2.36,-2.3603,-2.3638,-2.3614,-2.3616,-2.3617,-2.3618,-2.3693,-2.3694,0,0,0,0,0,0,-2.3489,-2.3495,-2.3545,-2.3548,-2.3514,-2.354,-2.3544,-2.3556,-2.3578,-2.358,-2.3563,-2.3563,-2.3597,-2.3601,-2.3605,-2.3636,-2.3616,-2.3618,-2.3619,-2.3692,-2.3693,-2.3694,0,0,0,0,0,0,-2.3487,-2.3493,-2.3544,-2.3521,-2.3528,-2.3542,-2.3555,-2.3557,-2.3566,-2.3581,-2.3584,-2.357,-2.3597,-2.3602,-2.3626,-2.3637,-2.3619,-2.3621,-2.3691,-2.3693,-2.3694,-2.3699,0,0,0,0,0,0,-2.3485,-2.3493,-2.3503,-2.3522,-2.3529,-2.3565,-2.3556,-2.3558,-2.3569,-2.3569,-2.3588,-2.359,-2.3597,-2.3623,-2.3628,-2.364,-2.3623,-2.369,-2.3692,-2.3693,-2.3698,-2.37,-2.3702,0,0,0,0,0,-2.3483,-2.3504,-2.3504,-2.351,-2.3543,-2.3566,-2.357,-2.3577,-2.357,-2.3581,-2.359,-2.359,-2.3635,-2.3626,-2.3632,-2.3644,-2.369,-2.3691,-2.3693,-2.3697,-2.37,-2.3702,0,0,0,0,0,0,-2.3487,-2.3506,-2.3507,-2.3534,-2.3548,-2.3566,-2.3579,-2.358,-2.3596,-2.3595,-2.3603,-2.3607,-2.3631,-2.364,-2.3629,-2.367,-2.3662,-2.3665,-2.3663,-2.3665,-2.3667,-2.3664,-2.3624,0,0,0,0,0,-2.3491,-2.3508,-2.3524,-2.3547,-2.3554,-2.3565,-2.3576,-2.358,-2.3595,-2.3601,-2.3612,-2.3627,-2.3644,-2.3656,-2.3673,-2.37,-2.3703,-2.3711,-2.3713,-2.3714,-2.3716,-2.373,-2.3733,-2.3699,-2.3699,-2.3699,0,0,-2.3499,-2.3512,-2.3523,-2.3548,-2.356,-2.3577,-2.3571,-2.359,-2.3602,-2.3604,-2.3627,-2.3636,-2.3653,-2.3678,-2.369,-2.3687,-2.3727,-2.3717,-2.3718,-2.3719,-2.3732,-2.3735,-2.3738,-2.37,-2.37,-2.37,0,0,-2.3523,-2.3535,-2.3555,-2.3566,-2.3583,-2.359,-2.3595,-2.3612,-2.3618,-2.3642,-2.3643,-2.3658,-2.3688,-2.37,-2.3709,-2.3737,-2.3736,-2.3742,-2.3752,-2.3765,-2.3768,-2.377,-2.3779,-2.3782,-2.3744,-2.3744,-2.3744,0,-2.3531,-2.3558,-2.3565,-2.3583,-2.3593,-2.3595,-2.3614,-2.3625,-2.3647,-2.3654,-2.365,-2.3687,-2.3699,-2.3726,-2.3732,-2.3741,-2.3746,-2.3739,-2.3767,-2.377,-2.3772,-2.378,-2.3783,-2.3745,-2.3745,-2.3745,-2.3745,0,-2.3566,-2.3584,-2.3598,-2.3618,-2.363,-2.3649,-2.3658,-2.367,-2.3673,-2.368,-2.3703,-2.3717,-2.3736,-2.3743,-2.3747,-2.3771,-2.3768,-2.3766,-2.3757,-2.3775,-2.3783,-2.3786,-2.3745,-2.3745,-2.3745,-2.3745,0,0,-2.3593,-2.3616,-2.3621,-2.3629,-2.3648,-2.3662,-2.368,-2.3699,-2.3708,-2.3723,-2.3738,-2.3763,-2.376,-2.3771,-2.3776,-2.3788,-2.3806,-2.3783,-2.3784,-2.3786,-2.3832,-2.3833,-2.3836,-2.3807,-2.3807,-2.3808,-2.383,0,-2.3618,-2.365,-2.3656,-2.3684,-2.37,-2.3702,-2.3718,-2.3731,-2.3738,-2.3753,-2.3761,-2.3778,-2.3774,-2.3781,-2.3792,-2.3801,-2.3815,-2.38,-2.382,-2.382,-2.3814,-2.384,-2.3841,-2.3862,-2.3833,-2.3834,-2.3834,0,-2.365,-2.3665,-2.3694,-2.3709,-2.3716,-2.373,-2.3747,-2.3761,-2.3776,-2.378,-2.3792,-2.3795,-2.3814,-2.3806,-2.3831,-2.3821,-2.3829,-2.3835,-2.3836,-2.3837,-2.3827,-2.3841,-2.3869,-2.3871,-2.3839,-2.3839,-2.3838,0,-2.3665,-2.3692,-2.3713,-2.372,-2.3739,-2.3748,-2.3757,-2.3771,-2.3781,-2.3795,-2.3802,-2.3819,-2.3828,-2.3841,-2.3848,-2.3842,-2.3873,-2.3866,-2.3876,-2.3876,-2.3881,-2.3881,-2.391,-2.389,-2.3889,-2.3889,-2.3889,0,-2.369,-2.3708,-2.3719,-2.3732,-2.3751,-2.3758,-2.3777,-2.3785,-2.3797,-2.3811,-2.3814,-2.3827,-2.3837,-2.3851,-2.3857,-2.3877,-2.3881,-2.3885,-2.3886,-2.3884,-2.3883,-2.3888,-2.3887,-2.389,-2.389,-2.389,-2.389,0,-2.3709,-2.3718,-2.374,-2.3755,-2.376,-2.3773,-2.3786,-2.3798,-2.3806,-2.3823,-2.3828,-2.3839,-2.3856,-2.3865,-2.3887,-2.3891,-2.3912,-2.3913,-2.3907,-2.3907,-2.3916,-2.3915,-2.3949,-2.3953,-2.3931,-2.3931,-2.3931,0,-2.3724,-2.3737,-2.3754,-2.3763,-2.3771,-2.3786,-2.3796,-2.3804,-2.3814,-2.3831,-2.3841,-2.3858,-2.3872,-2.3899,-2.3909,-2.3925,-2.3926,-2.3937,-2.3928,-2.3925,-2.3924,-2.3923,-2.3924,-2.3938,-2.3938,-2.3938,-2.3938,0,-2.3749,-2.3753,-2.3767,-2.3782,-2.3794,-2.3806,-2.3819,-2.3826,-2.3836,-2.3847,-2.3864,-2.3875,-2.3896,-2.3913,-2.3929,-2.3938,-2.3939,-2.3941,-2.3944,-2.3941,-2.3936,-2.3937,-2.3909,-2.394,-2.394,-2.394,-2.3939,-2.3939,-2.3766,-2.3777,-2.379,-2.3805,-2.3815,-2.3826,-2.3838,-2.3846,-2.386,-2.3878,-2.3882,-2.3899,-2.3913,-2.3935,-2.3944,-2.3958,-2.3956,-2.3961,-2.3962,-2.3963,-2.3962,-2.3935,-2.3962,-2.3962,-2.3962,-2.3962,-2.3962,0,-2.3789,-2.3798,-2.3812,-2.3828,-2.384,-2.384,-2.3854,-2.3864,-2.3879,-2.3891,-2.3904,-2.3923,-2.3939,-2.3951,-2.3967,-2.3976,-2.3977,-2.398,-2.3979,-2.398,-2.3964,-2.3959,-2.3979,-2.3979,-2.3979,-2.3979,-2.3979,-2.3979,-2.3803,-2.3821,-2.3826,-2.3849,-2.3857,-2.3874,-2.3881,-2.3892,-2.3901,-2.3922,-2.3935,-2.3942,-2.3954,-2.3971,-2.3986,-2.3989,-2.3994,-2.3996,-2.3999,-2.3984,-2.3982,-2.398,-2.3975,-2.3998,-2.3998,-2.4015,-2.4015,-2.4015]},{"header":{"parameterUnit":"m.s-1","parameterCategory":1,"la1":30.2991,"la2":30.254,"lo1":-89.0895,"lo2":-89.0444,"dy":0.0017,"dx":0.0017,"nx":28,"ny":28,"refTime":"2024-02-26T03:00:00:Z","depth":0,"parameterNumber":3,"parameterNumberName":"V-component_of_WINDS"},"data":[0,0,0,0,0,0,0,0,0,0,0,0,0,0,0,0,0,0,0,0,0,0,0,0,0,0,0,0,0,0,0,0,0,0,0,0,0,0,0,0,0,0,0,0,0,0,0,0,0,0,0,0,0,0,0,0,0,0,4.1194,4.1195,0,4.1349,4.1351,4.1352,4.1427,4.1427,4.1427,4.1426,4.1586,4.159,4.1595,0,0,0,0,0,0,0,0,0,0,0,0,0,4.0963,4.0967,4.1193,4.1195,4.1197,4.1349,4.1351,4.1353,4.1427,4.1427,4.1427,4.1426,4.1585,4.159,4.1595,0,0,0,0,0,0,0,0,0,0,0,0,0,4.1085,4.0968,4.1193,4.1252,4.1259,4.1348,4.1351,4.1353,4.1427,4.1427,4.1427,4.1426,4.1583,4.1589,4.1596,4.1638,0,0,4.1615,4.1618,0,0,0,0,0,0,0,0,4.1078,4.1093,4.1242,4.1248,4.1256,4.1368,4.1328,4.1449,4.1427,4.1363,4.1426,4.1426,4.1514,4.1526,4.1555,4.1645,4.1652,4.1616,4.162,4.1623,4.1625,0,0,0,0,0,0,0,4.107,4.1087,4.1255,4.1244,4.1253,4.1272,4.1289,4.1351,4.1437,4.1369,4.1374,4.1392,4.1518,4.1549,4.156,4.1654,4.1616,4.1622,4.1626,4.1628,4.1789,4.179,0,0,0,0,0,0,4.1051,4.108,4.125,4.126,4.1165,4.1276,4.1295,4.1332,4.1437,4.1452,4.1392,4.1395,4.1538,4.1552,4.1565,4.1624,4.1623,4.1629,4.1632,4.1789,4.1789,4.179,0,0,0,0,0,0,4.1046,4.1066,4.1244,4.1171,4.1195,4.128,4.1321,4.1336,4.1367,4.1454,4.147,4.1408,4.1538,4.1556,4.162,4.163,4.1632,4.1638,4.1788,4.1789,4.179,4.1739,0,0,0,0,0,0,4.1039,4.1063,4.1079,4.1171,4.1199,4.1294,4.1322,4.1339,4.1378,4.1383,4.1473,4.1488,4.154,4.161,4.1626,4.1639,4.1643,4.1788,4.1789,4.1789,4.174,4.1737,4.1735,0,0,0,0,0,4.1031,4.1058,4.108,4.11,4.1221,4.1295,4.1311,4.137,4.1378,4.1396,4.1452,4.1485,4.1626,4.1616,4.1635,4.165,4.1788,4.1788,4.1789,4.1741,4.1738,4.1735,0,0,0,0,0,0,4.0965,4.1071,4.1096,4.1154,4.1215,4.1307,4.1331,4.1364,4.1424,4.1426,4.1497,4.1517,4.1574,4.1618,4.1605,4.1697,4.171,4.1715,4.1666,4.1664,4.1662,4.1651,4.1648,0,0,0,0,0,4.0958,4.1009,4.1099,4.1141,4.1171,4.1245,4.128,4.132,4.1386,4.1412,4.1473,4.1536,4.1595,4.1632,4.169,4.1746,4.1768,4.1766,4.1764,4.1761,4.1765,4.1801,4.1802,4.1793,4.1793,4.1793,0,0,4.0943,4.1007,4.1034,4.113,4.1182,4.1234,4.1266,4.132,4.136,4.142,4.1484,4.1531,4.1606,4.1666,4.1696,4.1705,4.1773,4.1763,4.176,4.1765,4.1802,4.1802,4.1803,4.1793,4.1793,4.1793,0,0,4.0942,4.0995,4.1038,4.1089,4.1167,4.1217,4.1227,4.1315,4.1349,4.1414,4.1461,4.151,4.1609,4.1661,4.1701,4.1722,4.1756,4.1739,4.1728,4.1762,4.1762,4.1763,4.1773,4.1776,4.1742,4.1742,4.1742,0,4.0914,4.0994,4.1055,4.1107,4.1148,4.1206,4.125,4.1297,4.139,4.1418,4.1427,4.1554,4.1608,4.1683,4.1688,4.1718,4.1733,4.173,4.1757,4.1759,4.1761,4.1771,4.1774,4.174,4.174,4.174,4.1741,0,4.0956,4.1011,4.1036,4.1125,4.1169,4.1217,4.1287,4.1324,4.1361,4.141,4.1477,4.1545,4.1619,4.164,4.1675,4.172,4.1724,4.1743,4.1758,4.1758,4.1769,4.1773,4.1736,4.1737,4.1738,4.1739,0,0,4.0918,4.1042,4.1051,4.1093,4.1184,4.1228,4.1279,4.1352,4.1384,4.1447,4.1493,4.1576,4.1596,4.1641,4.1683,4.1712,4.1728,4.1729,4.1732,4.1728,4.1784,4.177,4.1773,4.175,4.1751,4.1752,4.1778,0,4.0932,4.1026,4.1084,4.1155,4.1207,4.1264,4.1308,4.137,4.1418,4.147,4.1523,4.1582,4.1602,4.163,4.1661,4.1719,4.174,4.1718,4.1795,4.1797,4.1776,4.1778,4.1763,4.1785,4.1783,4.1784,4.1784,0,4.096,4.1022,4.1099,4.1186,4.1211,4.125,4.1323,4.1372,4.1443,4.1476,4.1527,4.157,4.1628,4.1637,4.1718,4.1702,4.1737,4.177,4.1772,4.1783,4.1791,4.1791,4.1793,4.1797,4.1791,4.179,4.179,0,4.0928,4.103,4.109,4.1124,4.1227,4.1254,4.1298,4.137,4.1411,4.1475,4.1502,4.1572,4.161,4.1663,4.1725,4.1725,4.1801,4.1814,4.1831,4.183,4.1846,4.1844,4.1855,4.1865,4.1865,4.1865,4.1865,0,4.0938,4.0983,4.1077,4.1114,4.1167,4.1234,4.1284,4.1333,4.1397,4.1445,4.1497,4.1541,4.1619,4.1673,4.1721,4.1783,4.1799,4.1829,4.1841,4.1825,4.1822,4.185,4.1851,4.1866,4.1865,4.1865,4.1865,0,4.0911,4.0976,4.1045,4.1137,4.1162,4.1197,4.1276,4.1315,4.1366,4.1427,4.1445,4.1525,4.1592,4.1658,4.1747,4.178,4.1841,4.1857,4.1817,4.1825,4.1839,4.1837,4.187,4.1879,4.188,4.188,4.188,0,4.0914,4.095,4.1047,4.1083,4.1126,4.1184,4.1226,4.1294,4.1336,4.1421,4.145,4.1521,4.1581,4.1686,4.1752,4.1822,4.1841,4.1848,4.1852,4.1835,4.1844,4.1842,4.1847,4.1846,4.1846,4.1845,4.1845,0,4.0913,4.0944,4.1003,4.1074,4.1124,4.1183,4.1244,4.127,4.135,4.1395,4.1464,4.1511,4.1604,4.1674,4.1752,4.1798,4.1836,4.1843,4.1851,4.1836,4.1812,4.1827,4.1814,4.1842,4.1843,4.1843,4.1843,4.1843,4.0903,4.0939,4.1013,4.1078,4.1131,4.1187,4.1229,4.1285,4.1344,4.1425,4.1461,4.1531,4.1604,4.1713,4.1759,4.1816,4.1825,4.1836,4.1839,4.1841,4.1839,4.1802,4.183,4.183,4.183,4.183,4.183,0,4.0907,4.0957,4.1016,4.1101,4.1152,4.1183,4.1252,4.1294,4.1355,4.142,4.1478,4.1559,4.1628,4.1701,4.1774,4.1806,4.1825,4.1823,4.1822,4.1833,4.1825,4.1812,4.1806,4.1806,4.1806,4.1806,4.1806,4.1806,4.0915,4.0978,4.1017,4.1108,4.1159,4.1228,4.1266,4.1319,4.1371,4.1459,4.1517,4.1563,4.1632,4.1712,4.1777,4.1797,4.1822,4.1816,4.184,4.1832,4.1833,4.1835,4.1823,4.182,4.182,4.1844,4.1844,4.1844]}]]